Wind_Speed
31 32 33 34 35 36 37 37 38 38 38 39 40 41 40 39 39 39 39 37 37 37 37 36 35 35 35 35 35 36 34 33 33 32 31 29 28 28 27 26 26 26 26
30 29 29 30 32 33 34 35 36 37 38 39 38 39 40 40 41 41 42 42 42 42 41 42 42 42 41 39 37 38 38 38 36 35 35 34 33 32 31 31 30 30 29
27 27 28 29 30 31 31 32 33 33 33 33 35 36 37 38 38 39 40 42 42 41 43 44 44 44 47 46 44 41 40 40 41 40 38 37 37 36 36 36 35 34 34
27 28 30 31 31 31 32 32 31 30 31 30 30 30 30 31 32 32 33 35 37 38 39 41 43 46 49 51 50 49 45 38 45 43 43 38 38 40 40 40 39 38 37
28 29 30 30 30 29 30 30 28 27 26 26 26 24 24 25 26 27 29 31 33 37 39 41 42 44 46 50 53 54 53 49 52 48 44 45 44 44 48 45 41 42 39
30 30 30 29 28 27 27 28 25 26 25 23 22 21 21 22 22 23 24 27 30 32 34 36 38 40 42 44 48 52 54 56 56 54 50 49 46 49 55 59 40 45 50
31 29 27 27 28 27 26 25 22 21 24 22 20 18 19 18 17 19 19 21 23 25 28 30 32 32 32 33 36 40 45 49 51 52 54 50 46 47 58 51 46 43 41
26 24 25 27 28 26 23 21 18 18 21 21 20 18 15 17 17 17 18 21 23 27 29 29 27 26 27 27 28 29 33 39 42 44 47 50 53 47 36 37 29 29 24
23 23 26 27 26 21 20 18 17 17 18 19 19 19 18 13 14 13 14 19 24 27 26 26 24 24 25 25 24 26 29 34 37 37 36 41 42 42 40 42 34 29 26
22 23 25 23 19 17 17 16 16 16 16 16 18 20 19 18 19 14 10 15 23 27 26 24 22 23 22 23 23 25 28 33 33 34 35 32 32 30 33 31 30 32 34
20 21 20 18 16 15 16 16 16 15 14 14 14 15 17 19 21 24 18 15 18 23 25 22 21 20 20 22 21 20 26 35 41 34 28 28 27 27 32 28 18 27 13
20 19 15 13 14 14 13 12 11 10 10 10 12 14 16 18 19 20 19 16 16 20 20 19 19 18 18 20 20 18 20 24 16 13 24 15 37 26 34 28 30 25 20
21 18 15 13 14 15 15 13 11 9 10 11 14 17 20 21 22 22 21 19 17 16 18 18 17 17 18 16 17 17 18 15 5 5 13 28 11 29 30 18 19 22 25
21 20 18 17 17 19 18 17 17 16 16 17 18 20 22 22 21 20 20 21 16 16 17 16 16 16 14 16 15 15 14 10 11 5 12 15 12 17 23 27 22 23 26
19 22 21 21 21 23 22 20 20 20 20 20 20 21 22 23 21 19 18 18 19 16 12 12 14 15 16 14 16 16 14 8 10 12 8 5 7 4 13 18 22 24 21
20 21 23 24 25 25 23 22 22 21 21 21 21 21 22 23 22 21 19 19 19 18 15 11 11 12 14 15 16 14 15 14 14 15 14 14 14 14 16 18 21 24 26
22 22 23 24 25 25 26 25 24 24 23 22 21 21 22 22 22 20 20 20 20 20 18 16 14 13 14 16 17 17 17 15 14 15 16 16 19 21 22 23 24 25 26
25 25 25 25 26 26 26 25 25 25 25 24 23 23 23 23 23 21 20 19 21 21 20 21 20 18 18 17 15 15 16 19 19 17 17 17 15 16 18 20 21 23 25
29 29 29 28 28 27 27 27 26 26 26 25 25 24 24 24 24 23 23 24 25 26 25 23 22 21 20 19 17 15 13 12 12 12 13 14 15 16 16 17 19 19 20
31 31 31 31 30 31 30 29 29 28 27 26 26 25 25 26 26 25 24 24 25 26 25 24 23 21 20 19 19 17 15 14 13 12 13 14 15 16 17 18 20 21 22
34 33 33 33 34 33 32 32 32 31 30 30 29 28 28 27 26 26 25 25 25 25 24 23 23 22 22 20 20 19 18 16 15 15 15 16 16 18 19 21 22 23 24
34 34 33 33 33 33 34 36 36 34 34 31 29 30 31 30 30 29 27 26 26 25 25 24 23 23 22 22 21 20 20 20 20 20 20 20 21 22 23 24 25 26 27
36 35 35 36 34 33 34 36 39 39 37 36 34 33 32 31 30 31 30 29 28 27 26 25 25 24 23 23 22 22 22 22 22 22 23 23 24 24 25 26 27 28 29
36 36 34 35 37 36 35 36 38 40 39 38 38 37 36 34 33 32 31 30 30 29 28 28 27 26 25 24 24 24 24 24 24 24 24 24 25 24 25 27 28 30 31
36 37 37 36 36 33 36 37 39 39 38 37 39 41 40 37 36 37 35 32 32 30 30 29 28 27 26 26 26 26 26 25 25 24 25 24 24 25 26 27 29 29 29
36 36 35 36 36 34 34 36 39 40 40 37 38 40 42 42 41 40 38 36 34 33 32 31 29 29 28 27 26 26 27 26 25 25 25 24 24 25 27 28 29 28 28
Wind_Direction
294 293 293 291 289 286 285 283 281 278 276 273 273 274 273 273 274 273 272 270 269 268 263 261 262 267 264 263 260 262 263 263 263 262 262 261 261 261 261 262 262 261 261
299 298 296 294 292 291 289 287 285 282 280 279 277 274 273 272 271 271 272 271 270 270 268 268 263 264 266 265 261 261 260 261 261 261 260 260 259 259 260 260 260 261 261
303 302 300 299 297 296 293 291 289 287 285 282 280 278 277 275 274 273 272 273 274 273 272 270 269 265 265 265 263 261 259 261 261 260 260 260 261 260 259 258 258 259 260
304 304 303 301 298 295 292 289 286 287 287 284 282 282 283 284 285 282 280 278 277 277 275 272 269 266 263 262 264 265 262 259 256 255 259 260 264 261 260 260 259 259 262
307 307 306 304 302 298 293 289 288 287 286 285 287 288 289 289 288 286 283 280 278 276 274 274 272 270 268 266 264 262 261 257 259 262 260 259 256 264 247 251 255 257 260
309 309 309 307 305 301 296 291 289 289 286 285 287 287 285 284 282 281 280 279 278 278 281 282 282 279 275 272 269 267 266 264 263 261 263 259 258 258 264 262 246 254 260
308 309 310 308 306 302 297 292 288 286 284 285 286 285 284 287 292 287 285 283 291 298 297 296 297 293 288 284 281 277 274 270 266 263 261 262 260 257 264 277 256 261 260
310 311 310 308 305 297 294 291 287 282 282 285 288 293 292 296 293 287 291 301 303 304 309 311 310 308 301 291 281 277 274 273 270 265 260 257 260 266 270 274 283 266 260
311 309 312 311 305 292 289 292 291 287 288 295 299 301 302 298 277 273 286 302 303 307 316 317 314 306 304 296 287 285 277 269 268 267 264 257 254 256 260 273 271 262 255
308 309 315 317 310 301 293 292 290 290 293 296 298 303 309 314 310 305 290 301 305 309 313 315 309 305 303 301 299 300 288 271 263 266 264 263 254 251 252 260 251 250 251
301 308 318 327 324 314 303 296 294 293 294 297 297 300 307 315 316 312 314 297 293 300 304 308 306 310 306 307 308 315 294 280 260 258 259 255 245 237 239 244 248 225 255
296 305 316 333 341 340 328 313 298 293 296 307 314 316 315 310 305 300 300 299 291 289 302 307 308 309 308 314 316 331 329 4 19 226 241 253 221 224 233 237 230 251 252
294 299 303 309 327 335 341 336 325 319 315 316 314 313 310 309 308 308 309 311 307 295 296 305 304 302 304 309 314 308 315 348 15 178 223 233 244 226 229 236 229 240 241
292 295 296 291 297 307 316 318 317 310 306 303 304 307 307 305 307 308 307 308 309 303 296 298 305 308 314 309 311 311 316 336 344 16 212 181 156 184 210 237 240 248 249
289 289 294 293 290 293 298 299 301 301 300 301 301 301 302 304 305 301 299 301 307 308 297 295 297 302 305 305 305 305 312 287 300 311 293 269 272 244 228 235 247 251 260
294 289 288 291 292 292 295 297 295 297 298 299 298 299 301 303 305 302 297 297 299 302 305 308 307 308 307 305 295 289 293 287 274 276 282 282 277 266 266 265 265 267 269
293 290 289 291 292 295 297 296 296 296 296 295 297 296 297 298 302 305 299 297 295 295 298 302 306 310 309 311 313 291 283 284 287 278 275 268 267 268 270 270 274 278 277
294 291 290 290 292 293 293 293 293 292 293 294 295 294 293 294 293 297 300 300 303 299 296 300 306 308 310 312 314 311 292 282 277 278 280 285 275 269 260 261 269 272 275
296 294 290 287 285 285 286 288 289 289 289 289 290 291 291 291 290 289 287 288 291 295 296 295 298 304 307 309 311 314 314 308 298 281 271 274 281 284 286 286 284 282 280
301 300 294 290 289 286 285 284 283 283 282 282 283 284 285 286 287 287 285 286 288 290 293 295 296 298 298 301 304 307 308 311 310 307 301 298 295 293 289 287 287 286 285
295 296 298 299 293 288 284 282 281 282 283 283 283 280 276 276 278 281 282 282 283 285 286 287 289 291 293 294 296 299 299 298 296 294 291 288 286 287 287 287 286 285 285
291 288 289 290 294 294 289 286 283 280 278 276 275 276 278 278 277 277 278 279 279 281 283 284 285 286 287 288 289 290 291 291 290 290 290 290 290 289 290 289 289 289 288
290 289 288 286 285 286 287 286 285 284 280 279 277 275 275 275 274 273 272 272 272 274 275 276 277 278 280 281 282 283 283 285 285 286 287 288 288 288 290 291 293 293 292
289 288 288 288 284 282 281 282 282 282 282 281 279 276 274 274 274 273 272 271 271 271 271 271 271 273 274 275 276 278 279 281 283 285 286 287 288 290 291 292 294 294 294
291 290 289 287 285 282 278 279 280 281 281 282 280 279 277 274 274 272 271 270 269 269 267 268 268 270 272 273 275 277 278 279 280 282 284 285 286 289 292 294 296 296 295
291 290 288 287 286 283 277 276 276 278 278 278 278 279 278 277 273 271 270 268 268 269 267 266 267 268 270 271 272 274 276 277 278 279 279 281 285 289 293 296 297 297 297
Height
3140 3138 3136 3133 3130 3128 3125 3124 3122 3121 3120 3119 3118 3117 3116 3115 3114 3113 3113 3113 3112 3111 3111 3111 3111 3109 3108 3108 3108 3108 3108 3109 3109 3109 3110 3110 3111 3112 3113 3113 3114 3114 3115
3134 3132 3129 3126 3123 3120 3118 3115 3114 3112 3111 3110 3110 3108 3107 3107 3106 3106 3105 3105 3105 3105 3104 3103 3104 3102 3101 3100 3101 3100 3100 3101 3101 3101 3102 3103 3104 3105 3106 3107 3107 3108 3109
3128 3125 3123 3120 3117 3114 3112 3109 3106 3104 3103 3101 3100 3099 3098 3098 3098 3097 3096 3096 3096 3096 3095 3094 3093 3093 3092 3092 3091 3091 3092 3093 3093 3093 3094 3096 3097 3098 3098 3099 3100 3101 3102
3123 3120 3117 3114 3111 3108 3104 3102 3100 3098 3095 3094 3093 3092 3091 3091 3090 3090 3089 3087 3086 3085 3084 3083 3082 3081 3081 3080 3081 3082 3083 3083 3072 3083 3086 3087 3088 3089 3089 3091 3092 3094 3096
3117 3114 3111 3107 3104 3101 3097 3095 3093 3091 3090 3087 3086 3086 3086 3085 3084 3083 3082 3080 3078 3075 3072 3071 3071 3071 3071 3070 3069 3070 3071 3073 3072 3074 3076 3078 3079 3077 3069 3076 3082 3086 3086
3111 3108 3104 3100 3097 3094 3091 3088 3088 3085 3083 3082 3081 3081 3079 3078 3077 3076 3074 3072 3070 3067 3066 3064 3062 3061 3060 3059 3058 3058 3058 3060 3062 3063 3065 3067 3069 3070 3068 3066 3066 3073 3076
3106 3102 3098 3094 3091 3088 3085 3083 3082 3080 3077 3076 3076 3076 3073 3073 3073 3071 3068 3065 3064 3062 3059 3056 3055 3053 3052 3051 3049 3048 3046 3046 3047 3049 3053 3056 3059 3061 3054 3053 3059 3064 3063
3101 3097 3094 3090 3086 3083 3080 3078 3077 3076 3073 3072 3071 3072 3071 3070 3068 3065 3064 3061 3059 3056 3054 3051 3048 3046 3043 3041 3039 3038 3037 3035 3034 3035 3038 3042 3047 3050 3054 3051 3052 3055 3052
3096 3093 3089 3085 3080 3078 3075 3074 3073 3072 3070 3068 3067 3066 3065 3067 3064 3064 3062 3058 3054 3052 3050 3047 3044 3040 3037 3033 3031 3030 3028 3027 3024 3024 3026 3030 3034 3042 3045 3046 3047 3051 3052
3093 3089 3085 3081 3076 3073 3072 3071 3070 3068 3067 3065 3063 3061 3060 3061 3058 3059 3059 3056 3051 3047 3046 3044 3040 3035 3032 3030 3027 3023 3020 3018 3016 3016 3018 3020 3025 3032 3037 3039 3039 3042 3042
3089 3086 3082 3077 3074 3071 3069 3068 3067 3065 3064 3062 3060 3059 3057 3056 3054 3050 3051 3052 3048 3044 3042 3039 3036 3032 3029 3026 3022 3018 3014 3010 3006 3009 3011 3012 3018 3024 3027 3031 3036 3027 3038
3085 3082 3079 3076 3073 3070 3067 3065 3064 3062 3060 3058 3056 3055 3053 3051 3051 3049 3047 3046 3045 3041 3038 3035 3032 3029 3026 3023 3020 3017 3014 3006 2996 3000 3005 3011 3006 3015 3019 3026 3029 3031 3030
3081 3079 3076 3074 3072 3070 3067 3065 3063 3060 3058 3056 3054 3052 3049 3047 3046 3043 3041 3040 3038 3037 3035 3033 3029 3026 3024 3021 3018 3016 3014 3011 3006 3002 3004 3008 3008 3011 3018 3022 3023 3026 3028
3077 3075 3073 3072 3070 3068 3065 3063 3061 3059 3056 3053 3051 3050 3047 3045 3042 3040 3038 3035 3035 3032 3031 3030 3027 3024 3020 3018 3016 3015 3013 3011 3009 3007 3006 3006 3006 3009 3013 3016 3017 3019 3021
3072 3071 3070 3068 3066 3064 3062 3060 3058 3055 3052 3050 3048 3046 3044 3042 3039 3036 3034 3032 3029 3027 3027 3025 3023 3020 3018 3015 3012 3010 3011 3010 3009 3008 3008 3008 3008 3010 3013 3014 3015 3017 3016
3068 3067 3065 3064 3062 3059 3057 3056 3053 3051 3048 3046 3044 3042 3040 3038 3035 3033 3031 3029 3026 3023 3022 3021 3019 3017 3015 3012 3010 3008 3007 3006 3007 3007 3006 3007 3007 3008 3009 3009 3009 3009 3010
3063 3062 3060 3058 3056 3054 3053 3051 3049 3047 3044 3042 3040 3038 3036 3034 3031 3029 3027 3025 3023 3020 3019 3017 3015 3014 3012 3011 3008 3005 3003 3003 3002 3001 3001 3002 3003 3005 3005 3006 3005 3004 3004
3059 3056 3054 3052 3050 3048 3046 3045 3043 3042 3040 3038 3036 3034 3032 3030 3028 3026 3024 3022 3020 3017 3016 3014 3012 3010 3008 3005 3003 3002 2999 2997 2997 2998 2998 2998 2999 2999 2998 2998 2998 2998 2998
3053 3051 3048 3045 3043 3041 3039 3038 3037 3035 3034 3032 3030 3029 3027 3025 3023 3022 3020 3018 3016 3014 3011 3009 3007 3005 3003 3001 2999 2997 2996 2994 2993 2993 2993 2994 2993 2993 2992 2991 2991 2990 2990
3047 3045 3041 3039 3037 3035 3033 3031 3029 3028 3026 3025 3023 3022 3020 3019 3018 3016 3014 3012 3011 3009 3007 3005 3003 3001 2998 2997 2995 2994 2992 2991 2991 2990 2989 2988 2988 2987 2986 2986 2985 2985 2985
3039 3036 3034 3033 3030 3028 3025 3023 3021 3020 3019 3019 3017 3014 3012 3011 3010 3009 3008 3006 3004 3003 3001 2999 2998 2997 2995 2993 2992 2991 2989 2988 2987 2986 2986 2985 2984 2983 2982 2981 2980 2979 2979
3030 3027 3026 3024 3023 3021 3019 3017 3013 3012 3010 3009 3008 3006 3006 3005 3003 3002 3001 2999 2998 2996 2995 2994 2992 2991 2990 2989 2988 2987 2985 2983 2982 2981 2979 2979 2979 2977 2976 2975 2973 2972 2971
3021 3019 3017 3014 3013 3012 3010 3008 3005 3003 3002 3001 3000 2999 2997 2996 2995 2993 2992 2991 2990 2989 2988 2987 2986 2984 2984 2983 2982 2980 2979 2978 2977 2976 2974 2973 2972 2971 2969 2968 2966 2965 2963
3012 3009 3008 3005 3002 3003 3000 2998 2995 2993 2993 2993 2991 2989 2988 2988 2986 2985 2984 2983 2982 2982 2980 2979 2978 2977 2976 2975 2974 2974 2973 2971 2970 2969 2968 2967 2965 2964 2963 2961 2960 2957 2955
3002 3000 2998 2996 2992 2993 2990 2987 2983 2982 2983 2984 2983 2980 2979 2979 2977 2975 2975 2975 2974 2973 2972 2971 2970 2970 2969 2969 2968 2968 2966 2965 2964 2963 2961 2961 2959 2957 2957 2955 2952 2950 2947
2992 2990 2988 2986 2984 2982 2979 2976 2973 2971 2970 2972 2972 2971 2970 2970 2967 2965 2965 2964 2965 2964 2963 2963 2963 2962 2962 2961 2961 2960 2960 2959 2958 2957 2956 2955 2953 2951 2950 2948 2945 2942 2939